Change the Weather History Date:

Wednesday, April 24, 2013

  Actual Average Record
Temperature  
Mean Temperature 82 °F -  
Max Temperature 94 °F - - ()
Min Temperature 71 °F - - ()
Cooling Degree Days 18    
Growing Degree Days 32 (Base 50)    
Moisture  
Dew Point 74 °F    
Average Humidity 74    
Maximum Humidity 100    
Minimum Humidity 45    
Precipitation  
Precipitation 0.00 in - - ()
Sea Level Pressure  
Sea Level Pressure 29.79 in    
Wind  
Wind Speed 1 mph ()    
Max Wind Speed 7 mph    
Max Gust Speed -    
Visibility 5.9 miles    
Events      
T = Trace of Precipitation, MM = Missing Value Source: Averaged Metar Reports

Daily Weather History Graph

Daily Weather History Graph

Search for Another Location

Airport or City:

Trip Planner

Search our weather history database for the weather conditions in past years. The results will help you decide how hot, cold, wet, or windy it might be!

Date:

Astronomy

Apr. 24, 2013 Rise Set
Actual Time 6:08 AM WIB 6:16 PM WIB
Civil Twilight 5:47 AM WIB 6:37 PM WIB
Nautical Twilight 5:22 AM WIB 7:02 PM WIB
Astronomical Twilight 4:58 AM WIB 7:26 PM WIB
Moon 4:57 PM WIB (4/24) 4:30 AM WIB (4/24)
Length of Visible Light 12h 49m
Length of Day
12h 07m
Waxing Gibbous, 96% of the Moon is Illuminated
Apr 24
Waxing Gibbous
Apr 26
Full
May 2
Last Quarter
May 10
New
May 18
First Quarter

Hourly Weather History & Observations

Time (WIB) Temp. Heat Index Dew Point Humidity Pressure Visibility Wind Dir Wind Speed Gust Speed Precip Events Conditions
1:00 AM 74 °F - 74 °F 98% 29.86 in 4 mi Calm Calm - -   Partly Cloudy
4:00 AM 73 °F - 73 °F 100% 29.84 in 6 mi Calm Calm - -   Scattered Clouds
6:00 AM 71.6 °F - 71.6 °F 100% 29.80 in 6.2 mi Calm Calm - N/A   Partly Cloudy
7:00 AM 73 °F - 72 °F 98% 29.81 in 6 mi Calm Calm - -   Scattered Clouds
8:00 AM 75.2 °F - 73.4 °F 94% 29.80 in 6.2 mi SSW 6.9 mph - N/A   Unknown
9:00 AM 78.8 °F - 73.4 °F 83% 29.83 in 6.2 mi Calm Calm - N/A   Unknown
10:00 AM 83 °F - 76 °F 74% 29.84 in 6 mi Calm Calm - -   Scattered Clouds
10:00 AM 82.4 °F 89.5 °F 75.2 °F 79% 29.83 in 6.2 mi Calm Calm - N/A   Unknown
11:00 AM 86.0 °F 93.4 °F 73.4 °F 66% 29.83 in 6.2 mi NW 5.8 mph - N/A   Partly Cloudy
12:00 PM 89.6 °F 98.2 °F 73.4 °F 59% 29.80 in 6.2 mi Calm Calm - N/A   Scattered Clouds
1:00 PM 90 °F - 76 °F 54% 29.78 in 6 mi SSE 5.8 mph - -   Partly Cloudy
1:00 PM 89.6 °F 99.8 °F 75.2 °F 62% 29.77 in 6.2 mi SSE 5.8 mph - N/A   Scattered Clouds
2:00 PM 91.4 °F 100.1 °F 73.4 °F 55% 29.74 in 6.2 mi Calm Calm - N/A   Scattered Clouds
4:00 PM 91 °F - 72 °F 45% 29.72 in 6 mi ESE 5.8 mph - -   Scattered Clouds
4:00 PM 91.4 °F 98.4 °F 71.6 °F 52% 29.71 in 6.2 mi ESE 5.8 mph - N/A   Partly Cloudy
5:00 PM 89.6 °F 98.2 °F 73.4 °F 59% 29.71 in 6.2 mi Calm Calm - N/A   Partly Cloudy
6:00 PM 87.8 °F 97.6 °F 75.2 °F 66% 29.74 in 6.2 mi Calm Calm - N/A   Partly Cloudy
7:00 PM 85 °F - 76 °F 69% 29.76 in 6 mi Calm Calm - -   Scattered Clouds
7:00 PM 86.0 °F 96.9 °F 77.0 °F 74% 29.74 in 5.6 mi Calm Calm - N/A   Partly Cloudy
8:00 PM 84.2 °F 94.1 °F 77.0 °F 79% 29.77 in 5.0 mi Calm Calm - N/A   Partly Cloudy
10:00 PM 82 °F - 78 °F 83% 29.85 in 5 mi Calm Calm - -   Mostly Cloudy